Year,Month,Day,Hour,Minute,Value (Times are PST for temperature in C)
2020,03,31,00,00,4.00
2020,03,31,00,01,4.00
2020,03,31,00,02,4.10
2020,03,31,00,03,4.10
2020,03,31,00,04,4.20
2020,03,31,00,05,4.20
2020,03,31,00,06,4.20
2020,03,31,00,07,4.30
2020,03,31,00,08,4.30
2020,03,31,00,09,4.30
2020,03,31,00,10,4.30
2020,03,31,00,11,4.40
2020,03,31,00,12,4.40
2020,03,31,00,13,4.40
2020,03,31,00,14,4.40
2020,03,31,00,15,4.40
2020,03,31,00,16,4.50
2020,03,31,00,17,4.50
2020,03,31,00,18,4.50
2020,03,31,00,19,4.50
2020,03,31,00,20,4.50
2020,03,31,00,21,4.60
2020,03,31,00,22,4.60
2020,03,31,00,23,4.60
2020,03,31,00,24,4.60
2020,03,31,00,25,4.60
2020,03,31,00,26,4.60
2020,03,31,00,27,4.60
2020,03,31,00,28,4.60
2020,03,31,00,29,4.60
2020,03,31,00,30,4.60
2020,03,31,00,31,4.70
2020,03,31,00,32,4.70
2020,03,31,00,33,4.70
2020,03,31,00,34,4.70
2020,03,31,00,35,4.70
2020,03,31,00,36,4.70
2020,03,31,00,37,4.70
2020,03,31,00,38,4.70
2020,03,31,00,39,4.60
2020,03,31,00,40,4.60
2020,03,31,00,41,4.60
2020,03,31,00,42,4.60
2020,03,31,00,43,4.60
2020,03,31,00,44,4.60
2020,03,31,00,45,4.60
2020,03,31,00,46,4.60
2020,03,31,00,47,4.60
2020,03,31,00,48,4.60
2020,03,31,00,49,4.50
2020,03,31,00,50,4.50
2020,03,31,00,51,4.50
2020,03,31,00,52,4.50
2020,03,31,00,53,4.50
2020,03,31,00,54,4.50
2020,03,31,00,55,4.50
2020,03,31,00,56,4.40
2020,03,31,00,57,4.40
2020,03,31,00,58,4.40
2020,03,31,00,59,4.40
2020,03,31,01,00,4.40
2020,03,31,01,01,4.40
2020,03,31,01,02,4.40
2020,03,31,01,03,4.40
2020,03,31,01,04,4.40
2020,03,31,01,05,4.40
2020,03,31,01,06,4.40
2020,03,31,01,07,4.40
2020,03,31,01,08,4.40
2020,03,31,01,09,4.40
2020,03,31,01,10,4.40
2020,03,31,01,11,4.40
2020,03,31,01,12,4.40
2020,03,31,01,13,4.40
2020,03,31,01,14,4.40
2020,03,31,01,15,4.40
2020,03,31,01,16,4.40
2020,03,31,01,17,4.40
2020,03,31,01,18,4.30
2020,03,31,01,19,4.30
2020,03,31,01,20,4.30
2020,03,31,01,21,4.30
2020,03,31,01,22,4.30
2020,03,31,01,23,4.30
2020,03,31,01,24,4.30
2020,03,31,01,25,4.30
2020,03,31,01,26,4.30
2020,03,31,01,27,4.20
2020,03,31,01,28,4.20
2020,03,31,01,29,4.20
2020,03,31,01,30,4.20
2020,03,31,01,31,4.20
2020,03,31,01,32,4.10
2020,03,31,01,33,4.10
2020,03,31,01,34,4.10
2020,03,31,01,35,4.10
2020,03,31,01,36,4.10
2020,03,31,01,37,4.00
2020,03,31,01,38,4.00
2020,03,31,01,39,4.00
2020,03,31,01,40,4.00
2020,03,31,01,41,3.90
2020,03,31,01,42,3.90
2020,03,31,01,43,3.90
2020,03,31,01,44,3.90
2020,03,31,01,45,3.90
2020,03,31,01,46,3.90
2020,03,31,01,47,3.90
2020,03,31,01,48,3.80
2020,03,31,01,49,3.80
2020,03,31,01,50,3.80
2020,03,31,01,51,3.80
2020,03,31,01,52,3.80
2020,03,31,01,53,3.80
2020,03,31,01,54,3.80
2020,03,31,01,55,3.80
2020,03,31,01,56,3.70
2020,03,31,01,57,3.70
2020,03,31,01,58,3.70
2020,03,31,01,59,3.70
2020,03,31,02,00,3.70
2020,03,31,02,01,3.60
2020,03,31,02,02,3.60
2020,03,31,02,03,3.60
2020,03,31,02,04,3.60
2020,03,31,02,05,3.60
2020,03,31,02,06,3.60
2020,03,31,02,07,3.60
2020,03,31,02,08,3.60
2020,03,31,02,09,3.60
2020,03,31,02,10,3.50
2020,03,31,02,11,3.50
2020,03,31,02,12,3.50
2020,03,31,02,13,3.50
2020,03,31,02,14,3.50
2020,03,31,02,15,3.40
2020,03,31,02,16,3.40
2020,03,31,02,17,3.40
2020,03,31,02,18,3.30
2020,03,31,02,19,3.30
2020,03,31,02,20,3.30
2020,03,31,02,21,3.20
2020,03,31,02,22,3.20
2020,03,31,02,23,3.20
2020,03,31,02,24,3.10
2020,03,31,02,25,3.10
2020,03,31,02,26,3.10
2020,03,31,02,27,3.00
2020,03,31,02,28,3.00
2020,03,31,02,29,3.00
2020,03,31,02,30,2.90
2020,03,31,02,31,2.90
2020,03,31,02,32,2.90
2020,03,31,02,33,2.80
2020,03,31,02,34,2.80
2020,03,31,02,35,2.80
2020,03,31,02,36,2.80
2020,03,31,02,37,2.80
2020,03,31,02,38,2.70
2020,03,31,02,39,2.70
2020,03,31,02,40,2.70
2020,03,31,02,41,2.70
2020,03,31,02,42,2.70
2020,03,31,02,43,2.70
2020,03,31,02,44,2.70
2020,03,31,02,45,2.70
2020,03,31,02,46,2.70
2020,03,31,02,47,2.70
2020,03,31,02,48,2.70
2020,03,31,02,49,2.70
2020,03,31,02,50,2.70
2020,03,31,02,51,2.60
2020,03,31,02,52,2.60
2020,03,31,02,53,2.60
2020,03,31,02,54,2.60
2020,03,31,02,55,2.60
2020,03,31,02,56,2.60
2020,03,31,02,57,2.50
2020,03,31,02,58,2.50
2020,03,31,02,59,2.50
2020,03,31,03,00,2.50
2020,03,31,03,01,2.50
2020,03,31,03,02,2.40
2020,03,31,03,03,2.40
2020,03,31,03,04,2.50
2020,03,31,03,05,2.50
2020,03,31,03,06,2.40
2020,03,31,03,07,2.40
2020,03,31,03,08,2.40
2020,03,31,03,09,2.40
2020,03,31,03,10,2.40
2020,03,31,03,11,2.40
2020,03,31,03,12,2.40
2020,03,31,03,13,2.40
2020,03,31,03,14,2.30
2020,03,31,03,15,2.30
2020,03,31,03,16,2.30
2020,03,31,03,17,2.30
2020,03,31,03,18,2.30
2020,03,31,03,19,2.30
2020,03,31,03,20,2.20
2020,03,31,03,21,2.20
2020,03,31,03,22,2.20
2020,03,31,03,23,2.20
2020,03,31,03,24,2.20
2020,03,31,03,25,2.30
2020,03,31,03,26,2.20
2020,03,31,03,27,2.20
2020,03,31,03,28,2.20
2020,03,31,03,29,2.20
2020,03,31,03,30,2.20
2020,03,31,03,31,2.20
2020,03,31,03,32,2.20
2020,03,31,03,33,2.20
2020,03,31,03,34,2.20
2020,03,31,03,35,2.20
2020,03,31,03,36,2.10
2020,03,31,03,37,2.10
2020,03,31,03,38,2.10
2020,03,31,03,39,2.00
2020,03,31,03,40,2.00
2020,03,31,03,41,2.00
2020,03,31,03,42,1.90
2020,03,31,03,43,1.90
2020,03,31,03,44,1.90
2020,03,31,03,45,1.90
2020,03,31,03,46,1.90
2020,03,31,03,47,1.90
2020,03,31,03,48,2.00
2020,03,31,03,49,2.00
2020,03,31,03,50,2.00
2020,03,31,03,51,2.00
2020,03,31,03,52,2.00
2020,03,31,03,53,2.00
2020,03,31,03,54,1.90
2020,03,31,03,55,1.90
2020,03,31,03,56,1.90
2020,03,31,03,57,1.90
2020,03,31,03,58,1.90
2020,03,31,03,59,1.90
2020,03,31,04,00,1.80
2020,03,31,04,01,1.80
2020,03,31,04,02,1.80
2020,03,31,04,03,1.80
2020,03,31,04,04,1.80
2020,03,31,04,05,1.80
2020,03,31,04,06,1.80
2020,03,31,04,07,1.80
2020,03,31,04,08,1.70
2020,03,31,04,09,1.70
2020,03,31,04,10,1.70
2020,03,31,04,11,1.70
2020,03,31,04,12,1.70
2020,03,31,04,13,1.70
2020,03,31,04,14,1.60
2020,03,31,04,15,1.60
2020,03,31,04,16,1.60
2020,03,31,04,17,1.60
2020,03,31,04,18,1.60
2020,03,31,04,19,1.50
2020,03,31,04,20,1.50
2020,03,31,04,21,1.50
2020,03,31,04,22,1.50
2020,03,31,04,23,1.40
2020,03,31,04,24,1.40
2020,03,31,04,25,1.40
2020,03,31,04,26,1.40
2020,03,31,04,27,1.40
2020,03,31,04,28,1.40
2020,03,31,04,29,1.40
2020,03,31,04,30,1.40
2020,03,31,04,31,1.40
2020,03,31,04,32,1.40
2020,03,31,04,33,1.30
2020,03,31,04,34,1.30
2020,03,31,04,35,1.30
2020,03,31,04,36,1.30
2020,03,31,04,37,1.20
2020,03,31,04,38,1.20
2020,03,31,04,39,1.20
2020,03,31,04,40,1.20
2020,03,31,04,41,1.10
2020,03,31,04,42,1.10
2020,03,31,04,43,1.10
2020,03,31,04,44,1.10
2020,03,31,04,45,1.00
2020,03,31,04,46,1.00
2020,03,31,04,47,1.00
2020,03,31,04,48,0.90
2020,03,31,04,49,0.90
2020,03,31,04,50,0.90
2020,03,31,04,51,0.90
2020,03,31,04,52,0.90
2020,03,31,04,53,0.90
2020,03,31,04,54,0.90
2020,03,31,04,55,0.90
2020,03,31,04,56,0.90
2020,03,31,04,57,0.90
2020,03,31,04,58,0.90
2020,03,31,04,59,0.90
2020,03,31,05,00,0.90
2020,03,31,05,01,0.90
2020,03,31,05,02,0.90
2020,03,31,05,03,0.90
2020,03,31,05,04,0.90
2020,03,31,05,05,1.00
2020,03,31,05,06,1.00
2020,03,31,05,07,1.00
2020,03,31,05,08,1.00
2020,03,31,05,09,1.00
2020,03,31,05,10,1.00
2020,03,31,05,11,1.00
2020,03,31,05,12,1.00
2020,03,31,05,13,1.00
2020,03,31,05,14,1.00
2020,03,31,05,15,1.00
2020,03,31,05,16,1.10
2020,03,31,05,17,1.10
2020,03,31,05,18,1.10
2020,03,31,05,19,1.00
2020,03,31,05,20,1.00
2020,03,31,05,21,1.00
2020,03,31,05,22,0.90
2020,03,31,05,23,0.90
2020,03,31,05,24,0.90
2020,03,31,05,25,0.90
2020,03,31,05,26,0.80
2020,03,31,05,27,0.80
2020,03,31,05,28,0.80
2020,03,31,05,29,0.80
2020,03,31,05,30,0.80
2020,03,31,05,31,0.70
2020,03,31,05,32,0.70
2020,03,31,05,33,0.70
2020,03,31,05,34,0.70
2020,03,31,05,35,0.70
2020,03,31,05,36,0.70
2020,03,31,05,37,0.70
2020,03,31,05,38,0.70
2020,03,31,05,39,0.70
2020,03,31,05,40,0.70
2020,03,31,05,41,0.70
2020,03,31,05,42,0.70
2020,03,31,05,43,0.70
2020,03,31,05,44,0.70
2020,03,31,05,45,0.70
2020,03,31,05,46,0.70
2020,03,31,05,47,0.70
2020,03,31,05,48,0.70
2020,03,31,05,49,0.70
2020,03,31,05,50,0.80
2020,03,31,05,51,0.80
2020,03,31,05,52,0.80
2020,03,31,05,53,0.80
2020,03,31,05,54,0.80
2020,03,31,05,55,0.80
2020,03,31,05,56,0.80
2020,03,31,05,57,0.80
2020,03,31,05,58,0.80
2020,03,31,05,59,0.80
2020,03,31,06,00,0.80
2020,03,31,06,01,0.80
2020,03,31,06,02,0.80
2020,03,31,06,03,0.90
2020,03,31,06,04,0.90
2020,03,31,06,05,0.90
2020,03,31,06,06,0.90
2020,03,31,06,07,0.90
2020,03,31,06,08,0.90
2020,03,31,06,09,0.90
2020,03,31,06,10,0.90
2020,03,31,06,11,0.90
2020,03,31,06,12,0.90
2020,03,31,06,13,0.90
2020,03,31,06,14,0.90
2020,03,31,06,15,0.90
2020,03,31,06,16,0.90
2020,03,31,06,17,0.90
2020,03,31,06,18,0.90
2020,03,31,06,19,0.90
2020,03,31,06,20,0.80
2020,03,31,06,21,0.80
2020,03,31,06,22,0.80
2020,03,31,06,23,0.90
2020,03,31,06,24,0.90
2020,03,31,06,25,0.80
2020,03,31,06,26,0.90
2020,03,31,06,27,0.90
2020,03,31,06,28,0.90
2020,03,31,06,29,0.90
2020,03,31,06,30,0.90
2020,03,31,06,31,0.90
2020,03,31,06,32,0.90
2020,03,31,06,33,0.90
2020,03,31,06,34,0.90
2020,03,31,06,35,0.90
2020,03,31,06,36,0.90
2020,03,31,06,37,0.90
2020,03,31,06,38,0.90
2020,03,31,06,39,0.90
2020,03,31,06,40,0.90
2020,03,31,06,41,0.90
2020,03,31,06,42,0.80
2020,03,31,06,43,0.80
2020,03,31,06,44,0.80
2020,03,31,06,45,0.70
2020,03,31,06,46,0.70
2020,03,31,06,47,0.70
2020,03,31,06,48,0.70
2020,03,31,06,49,0.70
2020,03,31,06,50,0.70
2020,03,31,06,51,0.70
2020,03,31,06,52,0.70
2020,03,31,06,53,0.70
2020,03,31,06,54,0.70
2020,03,31,06,55,0.70
2020,03,31,06,56,0.70
2020,03,31,06,57,0.70
2020,03,31,06,58,0.70
2020,03,31,07,32,1.20
2020,03,31,07,33,1.20
2020,03,31,07,34,1.30
2020,03,31,07,35,1.30
2020,03,31,07,36,1.30
2020,03,31,07,37,1.40
2020,03,31,07,38,1.40
2020,03,31,07,39,1.50
2020,03,31,07,40,1.50
2020,03,31,07,41,1.60
2020,03,31,07,42,1.60
2020,03,31,07,43,1.60
2020,03,31,07,44,1.70
2020,03,31,07,45,1.70
2020,03,31,07,46,1.80
2020,03,31,07,47,1.80
2020,03,31,07,48,1.80
2020,03,31,07,49,1.90
2020,03,31,07,50,1.90
2020,03,31,07,51,2.00
2020,03,31,07,52,2.00
2020,03,31,07,53,2.10
2020,03,31,07,54,2.10
2020,03,31,07,55,2.10
2020,03,31,07,56,2.20
2020,03,31,07,57,2.20
2020,03,31,07,58,2.20
2020,03,31,07,59,2.30
2020,03,31,08,00,2.30
2020,03,31,08,01,2.30
2020,03,31,08,02,2.30
2020,03,31,08,03,2.40
2020,03,31,08,04,2.40
2020,03,31,08,05,2.40
2020,03,31,08,06,2.40
2020,03,31,08,07,2.40
2020,03,31,08,08,2.50
2020,03,31,08,09,2.50
2020,03,31,08,10,2.50
2020,03,31,08,11,2.60
2020,03,31,08,12,2.60
2020,03,31,08,13,2.60
2020,03,31,08,14,2.60
2020,03,31,08,15,2.60
2020,03,31,08,16,2.70
2020,03,31,08,17,2.70
2020,03,31,08,18,2.70
2020,03,31,08,19,2.70
2020,03,31,08,20,2.80
2020,03,31,08,21,2.80
2020,03,31,08,22,2.80
2020,03,31,08,23,2.90
2020,03,31,08,24,2.90
2020,03,31,08,25,2.90
2020,03,31,08,26,3.00
2020,03,31,08,27,3.00
2020,03,31,08,28,3.10
2020,03,31,08,29,3.20
2020,03,31,08,30,3.20
2020,03,31,08,31,3.30
2020,03,31,08,32,3.30
2020,03,31,08,33,3.40
2020,03,31,08,34,3.40
2020,03,31,08,35,3.50
2020,03,31,08,36,3.50
2020,03,31,08,37,3.50
2020,03,31,08,38,3.60
2020,03,31,08,39,3.60
2020,03,31,08,40,3.60
2020,03,31,08,41,3.60
2020,03,31,08,42,3.70
2020,03,31,08,43,3.70
2020,03,31,08,44,3.70
2020,03,31,08,45,3.70
2020,03,31,08,46,3.80
2020,03,31,08,47,3.80
2020,03,31,08,48,3.80
2020,03,31,08,49,3.90
2020,03,31,08,50,4.00
2020,03,31,08,51,4.00
2020,03,31,08,52,4.10
2020,03,31,08,53,4.10
2020,03,31,08,54,4.20
2020,03,31,08,55,4.20
2020,03,31,08,56,4.30
2020,03,31,08,57,4.30
2020,03,31,08,58,4.40
2020,03,31,08,59,4.40
2020,03,31,09,00,4.50
2020,03,31,09,01,4.60
2020,03,31,09,02,4.60
2020,03,31,09,03,4.70
2020,03,31,09,04,4.70
2020,03,31,09,05,4.80
2020,03,31,09,06,4.80
2020,03,31,09,07,4.80
2020,03,31,09,08,4.80
2020,03,31,09,09,4.90
2020,03,31,09,10,4.90
2020,03,31,09,11,4.90
2020,03,31,09,12,4.90
2020,03,31,09,13,4.90
2020,03,31,09,14,5.00
2020,03,31,09,15,5.00
2020,03,31,09,16,5.00
2020,03,31,09,17,5.10
2020,03,31,09,18,5.10
2020,03,31,09,19,5.10
2020,03,31,09,20,5.10
2020,03,31,09,21,5.20
2020,03,31,09,22,5.30
2020,03,31,09,23,5.40
2020,03,31,09,24,5.40
2020,03,31,09,25,5.40
2020,03,31,09,26,5.40
2020,03,31,09,27,5.30
2020,03,31,09,28,5.30
2020,03,31,09,29,5.40
2020,03,31,09,30,5.40
2020,03,31,09,31,5.40
2020,03,31,09,32,5.40
2020,03,31,09,33,5.40
2020,03,31,09,34,5.50
2020,03,31,09,35,5.50
2020,03,31,09,36,5.50
2020,03,31,09,37,5.50
2020,03,31,09,38,5.50
2020,03,31,09,39,5.50
2020,03,31,09,40,5.50
2020,03,31,09,41,5.50
2020,03,31,09,42,5.60
2020,03,31,09,43,5.60
2020,03,31,09,44,5.60
2020,03,31,09,45,5.70
2020,03,31,09,46,5.70
2020,03,31,09,47,5.80
2020,03,31,09,48,5.80
2020,03,31,09,49,5.80
2020,03,31,09,50,5.90
2020,03,31,09,51,6.00
2020,03,31,09,52,6.00
2020,03,31,09,53,6.10
2020,03,31,09,54,6.10
2020,03,31,09,55,6.10
2020,03,31,09,56,6.10
2020,03,31,09,57,6.20
2020,03,31,09,58,6.20
2020,03,31,09,59,6.20
2020,03,31,10,00,6.30
2020,03,31,10,01,6.30
2020,03,31,10,02,6.30
2020,03,31,10,03,6.40
2020,03,31,10,04,6.40
2020,03,31,10,05,6.50
2020,03,31,10,06,6.50
2020,03,31,10,07,6.50
2020,03,31,10,08,6.60
2020,03,31,10,09,6.60
2020,03,31,10,10,6.60
2020,03,31,10,11,6.60
2020,03,31,10,12,6.60
2020,03,31,10,13,6.60
2020,03,31,10,14,6.70
2020,03,31,10,15,6.70
2020,03,31,10,16,6.70
2020,03,31,10,17,6.80
2020,03,31,10,18,6.70
2020,03,31,10,19,6.70
2020,03,31,10,20,6.70
2020,03,31,10,21,6.70
2020,03,31,10,22,6.80
2020,03,31,10,23,6.80
2020,03,31,10,24,6.80
2020,03,31,10,25,6.80
2020,03,31,10,26,6.90
2020,03,31,10,27,6.90
2020,03,31,10,28,6.90
2020,03,31,10,29,6.90
2020,03,31,10,30,6.90
2020,03,31,10,31,7.00
2020,03,31,10,32,7.00
2020,03,31,10,33,7.10
2020,03,31,10,34,7.10
2020,03,31,10,35,7.10
2020,03,31,10,36,7.10
2020,03,31,10,37,7.10
2020,03,31,10,38,7.20
2020,03,31,10,39,7.20
2020,03,31,10,40,7.20
2020,03,31,10,41,7.20
2020,03,31,10,42,7.30
2020,03,31,10,43,7.30
2020,03,31,10,44,7.30
2020,03,31,10,45,7.30
2020,03,31,10,46,7.30
2020,03,31,10,47,7.30
2020,03,31,10,48,7.40
2020,03,31,10,49,7.40
2020,03,31,10,50,7.40
2020,03,31,10,51,7.40
2020,03,31,10,52,7.40
2020,03,31,10,53,7.40
2020,03,31,10,54,7.40
2020,03,31,10,55,7.40
2020,03,31,10,56,7.40
2020,03,31,10,57,7.40
2020,03,31,10,58,7.40
2020,03,31,10,59,7.50
2020,03,31,11,00,7.60
2020,03,31,11,01,7.70
2020,03,31,11,02,7.70
2020,03,31,11,03,7.80
2020,03,31,11,04,7.80
2020,03,31,11,05,7.90
2020,03,31,11,06,7.90
2020,03,31,11,07,7.90
2020,03,31,11,08,7.90
2020,03,31,11,09,7.90
2020,03,31,11,10,7.90
2020,03,31,11,11,7.90
2020,03,31,11,12,8.00
2020,03,31,11,13,8.00
2020,03,31,11,14,8.00
2020,03,31,11,15,8.10
2020,03,31,11,16,8.10
2020,03,31,11,17,8.20
2020,03,31,11,18,8.20
2020,03,31,11,19,8.20
2020,03,31,11,20,8.30
2020,03,31,11,21,8.30
2020,03,31,11,22,8.40
2020,03,31,11,23,8.40
2020,03,31,11,24,8.40
2020,03,31,11,25,8.40
2020,03,31,11,26,8.40
2020,03,31,11,27,8.40
2020,03,31,11,28,8.40
2020,03,31,11,29,8.50
2020,03,31,11,30,8.40
2020,03,31,11,31,8.30
2020,03,31,11,32,8.30
2020,03,31,11,33,8.30
2020,03,31,11,34,8.30
2020,03,31,11,35,8.30
2020,03,31,11,36,8.40
2020,03,31,11,37,8.30
2020,03,31,11,38,8.40
2020,03,31,11,39,8.40
2020,03,31,11,40,8.40
2020,03,31,11,41,8.50
2020,03,31,11,42,8.60
2020,03,31,11,43,8.70
2020,03,31,11,44,8.70
2020,03,31,11,45,8.70
2020,03,31,11,46,8.70
2020,03,31,11,47,8.80
2020,03,31,11,48,8.80
2020,03,31,11,49,8.80
2020,03,31,11,50,8.70
2020,03,31,11,51,8.70
2020,03,31,11,52,8.70
2020,03,31,11,53,8.60
2020,03,31,11,54,8.70
2020,03,31,11,55,8.70
2020,03,31,11,56,8.70
2020,03,31,11,57,8.70
2020,03,31,11,58,8.70
2020,03,31,11,59,8.70
2020,03,31,12,00,8.60
2020,03,31,12,01,8.50
2020,03,31,12,02,8.40
2020,03,31,12,03,8.30
2020,03,31,12,04,8.30
2020,03,31,12,05,8.40
2020,03,31,12,06,8.40
2020,03,31,12,07,8.40
2020,03,31,12,08,8.40
2020,03,31,12,09,8.40
2020,03,31,12,10,8.40
2020,03,31,12,11,8.40
2020,03,31,12,12,8.50
2020,03,31,12,13,8.60
2020,03,31,12,14,8.70
2020,03,31,12,15,8.80
2020,03,31,12,16,8.80
2020,03,31,12,17,8.70
2020,03,31,12,18,8.70
2020,03,31,12,19,8.60
2020,03,31,12,20,8.50
2020,03,31,12,21,8.40
2020,03,31,12,22,8.40
2020,03,31,12,23,8.40
2020,03,31,12,24,8.40
2020,03,31,12,25,8.40
2020,03,31,12,26,8.40
2020,03,31,12,27,8.40
2020,03,31,12,28,8.30
2020,03,31,12,29,8.30
2020,03,31,12,30,8.20
2020,03,31,12,31,8.10
2020,03,31,12,32,8.10
2020,03,31,12,33,8.10
2020,03,31,12,34,8.10
2020,03,31,12,35,8.10
2020,03,31,12,36,8.10
2020,03,31,12,37,8.00
2020,03,31,12,38,8.00
2020,03,31,12,39,7.90
2020,03,31,12,40,7.90
2020,03,31,12,41,7.80
2020,03,31,12,42,7.80
2020,03,31,12,43,7.70
2020,03,31,12,44,7.60
2020,03,31,12,45,7.50
2020,03,31,12,46,7.40
2020,03,31,12,47,7.40
2020,03,31,12,48,7.30
2020,03,31,12,49,7.30
2020,03,31,12,50,7.20
2020,03,31,12,51,7.20
2020,03,31,12,52,7.20
2020,03,31,12,53,7.10
2020,03,31,12,54,7.10
2020,03,31,12,55,7.10
2020,03,31,12,56,7.10
2020,03,31,12,57,7.10
2020,03,31,12,58,7.10
2020,03,31,12,59,7.10
2020,03,31,13,00,7.10
2020,03,31,13,01,7.10
2020,03,31,13,02,7.10
2020,03,31,13,03,7.10
2020,03,31,13,04,7.20
2020,03,31,13,05,7.20
2020,03,31,13,06,7.10
2020,03,31,13,07,7.10
2020,03,31,13,08,7.10
2020,03,31,13,09,7.10
2020,03,31,13,10,7.10
2020,03,31,13,11,7.10
2020,03,31,13,12,7.10
2020,03,31,13,13,7.20
2020,03,31,13,14,7.20
2020,03,31,13,15,7.30
2020,03,31,13,16,7.30
2020,03,31,13,17,7.40
2020,03,31,13,18,7.40
2020,03,31,13,19,7.50
2020,03,31,13,20,7.60
2020,03,31,13,21,7.70
2020,03,31,13,22,7.70
2020,03,31,13,23,7.80
2020,03,31,13,24,7.90
2020,03,31,13,25,8.00
2020,03,31,13,26,8.00
2020,03,31,13,27,8.10
2020,03,31,13,28,8.20
2020,03,31,13,29,8.30
2020,03,31,13,30,8.30
2020,03,31,13,31,8.30
2020,03,31,13,32,8.30
2020,03,31,13,33,8.30
2020,03,31,13,34,8.30
2020,03,31,13,35,8.30
2020,03,31,13,36,8.30
2020,03,31,13,37,8.30
2020,03,31,13,38,8.40
2020,03,31,13,39,8.50
2020,03,31,13,40,8.50
2020,03,31,13,41,8.60
2020,03,31,13,42,8.60
2020,03,31,13,43,8.70
2020,03,31,13,44,8.70
2020,03,31,13,45,8.70
2020,03,31,13,46,8.80
2020,03,31,13,47,8.80
2020,03,31,13,48,8.80
2020,03,31,13,49,8.90
2020,03,31,13,50,8.90
2020,03,31,13,51,8.90
2020,03,31,13,52,9.00
2020,03,31,13,53,9.00
2020,03,31,13,54,9.10
2020,03,31,13,55,9.10
2020,03,31,13,56,9.10
2020,03,31,13,57,9.10
2020,03,31,13,58,9.10
2020,03,31,13,59,9.10
2020,03,31,14,00,9.10
2020,03,31,14,01,9.20
2020,03,31,14,02,9.30
2020,03,31,14,03,9.30
2020,03,31,14,04,9.40
2020,03,31,14,05,9.40
2020,03,31,14,06,9.40
2020,03,31,14,07,9.50
2020,03,31,14,08,9.50
2020,03,31,14,09,9.50
2020,03,31,14,10,9.60
2020,03,31,14,11,9.70
2020,03,31,14,12,9.60
2020,03,31,14,13,9.50
2020,03,31,14,14,9.50
2020,03,31,14,15,9.50
2020,03,31,14,16,9.50
2020,03,31,14,17,9.50
2020,03,31,14,18,9.50
2020,03,31,14,19,9.50
2020,03,31,14,20,9.40
2020,03,31,14,21,9.40
2020,03,31,14,22,9.40
2020,03,31,14,23,9.40
2020,03,31,14,24,9.50
2020,03,31,14,25,9.60
2020,03,31,14,26,9.60
2020,03,31,14,27,9.60
2020,03,31,14,28,9.50
2020,03,31,14,29,9.40
2020,03,31,14,30,9.40
2020,03,31,14,31,9.30
2020,03,31,14,32,9.20
2020,03,31,14,33,9.20
2020,03,31,14,34,9.20
2020,03,31,14,35,9.10
2020,03,31,14,36,9.10
2020,03,31,14,37,9.10
2020,03,31,14,38,9.10
2020,03,31,14,39,9.10
2020,03,31,14,40,9.10
2020,03,31,14,41,9.10
2020,03,31,14,42,9.20
2020,03,31,14,43,9.20
2020,03,31,14,44,9.20
2020,03,31,14,45,9.20
2020,03,31,14,46,9.30
2020,03,31,14,47,9.20
2020,03,31,14,48,9.20
2020,03,31,14,49,9.30
2020,03,31,14,50,9.30
2020,03,31,14,51,9.20
2020,03,31,14,52,9.20
2020,03,31,14,53,9.20
2020,03,31,14,54,9.20
2020,03,31,14,55,9.20
2020,03,31,14,56,9.20
2020,03,31,14,57,9.20
2020,03,31,14,58,9.20
2020,03,31,14,59,9.30
2020,03,31,15,00,9.50
2020,03,31,15,01,9.60
2020,03,31,15,02,9.50
2020,03,31,15,03,9.50
2020,03,31,15,04,9.40
2020,03,31,15,05,9.30
2020,03,31,15,06,9.30
2020,03,31,15,07,9.20
2020,03,31,15,08,9.30
2020,03,31,15,09,9.30
2020,03,31,15,10,9.20
2020,03,31,15,11,9.10
2020,03,31,15,12,8.90
2020,03,31,15,13,8.80
2020,03,31,15,14,8.70
2020,03,31,15,15,8.70
2020,03,31,15,16,8.70
2020,03,31,15,17,8.70
2020,03,31,15,18,8.70
2020,03,31,15,19,8.80
2020,03,31,15,20,8.90
2020,03,31,15,21,8.90
2020,03,31,15,22,8.90
2020,03,31,15,23,8.90
2020,03,31,15,24,8.90
2020,03,31,15,25,8.90
2020,03,31,15,26,9.00
2020,03,31,15,27,9.00
2020,03,31,15,28,9.10
2020,03,31,15,29,9.20
2020,03,31,15,30,9.20
2020,03,31,15,31,9.10
2020,03,31,15,32,9.00
2020,03,31,15,33,8.90
2020,03,31,15,34,8.90
2020,03,31,15,35,9.00
2020,03,31,15,36,9.00
2020,03,31,15,37,8.90
2020,03,31,15,38,8.90
2020,03,31,15,39,8.80
2020,03,31,15,40,8.80
2020,03,31,15,41,8.80
2020,03,31,15,42,8.80
2020,03,31,15,43,8.80
2020,03,31,15,44,8.80
2020,03,31,15,45,8.80
2020,03,31,15,46,8.70
2020,03,31,15,47,8.70
2020,03,31,15,48,8.70
2020,03,31,15,49,8.70
2020,03,31,15,50,8.70
2020,03,31,15,51,8.70
2020,03,31,15,52,8.70
2020,03,31,15,53,8.70
2020,03,31,15,54,8.70
2020,03,31,15,55,8.80
2020,03,31,15,56,8.80
2020,03,31,15,57,8.80
2020,03,31,15,58,8.90
2020,03,31,15,59,8.90
2020,03,31,16,00,8.90
2020,03,31,16,01,8.80
2020,03,31,16,02,8.90
2020,03,31,16,03,8.80
2020,03,31,16,04,8.80
2020,03,31,16,05,8.80
2020,03,31,16,06,8.80
2020,03,31,16,07,8.80
2020,03,31,16,08,8.80
2020,03,31,16,09,8.80
2020,03,31,16,10,8.80
2020,03,31,16,11,8.80
2020,03,31,16,12,8.80
2020,03,31,16,13,8.80
2020,03,31,16,14,8.80
2020,03,31,16,15,8.80
2020,03,31,16,16,8.70
2020,03,31,16,17,8.70
2020,03,31,16,18,8.60
2020,03,31,16,19,8.70
2020,03,31,16,20,8.70
2020,03,31,16,21,8.70
2020,03,31,16,22,8.70
2020,03,31,16,23,8.70
2020,03,31,16,24,8.70
2020,03,31,16,25,8.70
2020,03,31,16,26,8.80
2020,03,31,16,27,8.80
2020,03,31,16,28,8.80
2020,03,31,16,29,8.80
2020,03,31,16,30,8.80
2020,03,31,16,31,8.80
2020,03,31,16,32,8.90
2020,03,31,16,33,8.90
2020,03,31,16,34,8.90
2020,03,31,16,35,8.90
2020,03,31,16,36,8.90
2020,03,31,16,37,9.00
2020,03,31,16,38,9.10
2020,03,31,16,39,9.10
2020,03,31,16,40,9.10
2020,03,31,16,41,9.00
2020,03,31,16,42,9.00
2020,03,31,16,43,8.90
2020,03,31,16,44,8.90
2020,03,31,16,45,8.90
2020,03,31,16,46,8.80
2020,03,31,16,47,8.80
2020,03,31,16,48,8.80
2020,03,31,16,49,8.80
2020,03,31,16,50,8.90
2020,03,31,16,51,8.90
2020,03,31,16,52,9.00
2020,03,31,16,53,9.00
2020,03,31,16,54,9.00
2020,03,31,16,55,9.10
2020,03,31,16,56,9.20
2020,03,31,16,57,9.20
2020,03,31,16,58,9.20
2020,03,31,16,59,9.30
2020,03,31,17,00,9.40
2020,03,31,17,01,9.50
2020,03,31,17,02,9.50
2020,03,31,17,03,9.50
2020,03,31,17,04,9.30
2020,03,31,17,05,9.20
2020,03,31,17,06,9.00
2020,03,31,17,07,8.90
2020,03,31,17,08,8.70
2020,03,31,17,09,8.60
2020,03,31,17,10,8.50
2020,03,31,17,11,8.40
2020,03,31,17,12,8.40
2020,03,31,17,13,8.30
2020,03,31,17,14,8.20
2020,03,31,17,15,8.20
2020,03,31,17,16,8.10
2020,03,31,17,17,8.10
2020,03,31,17,18,8.00
2020,03,31,17,19,7.90
2020,03,31,17,20,7.80
2020,03,31,17,21,7.70
2020,03,31,17,22,7.70
2020,03,31,17,23,7.70
2020,03,31,17,24,7.60
2020,03,31,17,25,7.60
2020,03,31,17,26,7.60
2020,03,31,17,27,7.50
2020,03,31,17,28,7.50
2020,03,31,17,29,7.40
2020,03,31,17,30,7.50
2020,03,31,17,31,7.50
2020,03,31,17,32,7.50
2020,03,31,17,33,7.60
2020,03,31,17,34,7.60
2020,03,31,17,35,7.60
2020,03,31,17,36,7.60
2020,03,31,17,37,7.60
2020,03,31,17,38,7.70
2020,03,31,17,39,7.70
2020,03,31,17,40,7.70
2020,03,31,17,41,7.70
2020,03,31,17,42,7.80
2020,03,31,17,43,7.80
2020,03,31,17,44,7.80
2020,03,31,17,45,7.90
2020,03,31,17,46,7.90
2020,03,31,17,47,7.90
2020,03,31,17,48,7.90
2020,03,31,17,49,7.90
2020,03,31,17,50,7.90
2020,03,31,17,51,7.90
2020,03,31,17,52,7.90
2020,03,31,17,53,7.90
2020,03,31,17,54,7.90
2020,03,31,17,55,7.90
2020,03,31,17,56,7.90
2020,03,31,17,57,7.80
2020,03,31,17,58,7.80
2020,03,31,17,59,7.70
2020,03,31,18,00,7.70
2020,03,31,18,01,7.60
2020,03,31,18,02,7.60
2020,03,31,18,03,7.60
2020,03,31,18,04,7.60
2020,03,31,18,05,7.60
2020,03,31,18,06,7.60
2020,03,31,18,07,7.60
2020,03,31,18,08,7.60
2020,03,31,18,09,7.60
2020,03,31,18,10,7.60
2020,03,31,18,11,7.60
2020,03,31,18,12,7.60
2020,03,31,18,13,7.60
2020,03,31,18,14,7.60
2020,03,31,18,15,7.50
2020,03,31,18,16,7.60
2020,03,31,18,17,7.60
2020,03,31,18,18,7.60
2020,03,31,18,19,7.60
2020,03,31,18,20,7.60
2020,03,31,18,21,7.60
2020,03,31,18,22,7.50
2020,03,31,18,23,7.50
2020,03,31,18,24,7.50
2020,03,31,18,25,7.50
2020,03,31,18,26,7.50
2020,03,31,18,27,7.50
2020,03,31,18,28,7.50
2020,03,31,18,29,7.60
2020,03,31,18,30,7.60
2020,03,31,18,31,7.60
2020,03,31,18,32,7.60
2020,03,31,18,33,7.60
2020,03,31,18,34,7.60
2020,03,31,18,35,7.60
2020,03,31,18,36,7.60
2020,03,31,18,37,7.60
2020,03,31,18,38,7.60
2020,03,31,18,39,7.60